Weather Service Report


650 
ASUS44 KLIX 282113
RWRLIX
NEW ORLEANS REGIONAL WEATHER ROUNDUP
NATIONAL WEATHER SERVICE NEW ORLEANS LA
400 PM CDT TUE MAR 28 2017

NOTE: "FAIR" INDICATES FEW OR NO CLOUDS BELOW 12,000 FEET WITH NO
      SIGNIFICANT WEATHER AND/OR OBSTRUCTIONS TO VISIBILITY.
      SKY/WX - SKY CONDITION AND SIGNIFICANT WEATHER.
      TMP - AIR TEMPERATURE.     DP    - DEWPOINT TEMPERATURE.
      RH  - RELATIVE HUMIDITY.   PRES  - PRESSURE.
      HI  - HEAT INDEX.          WCI   - WIND CHILL INDEX.

*  THESE STATIONS ARE NOT NWS OR FAA STATIONS AND ARE NOT UNDER
   NWS QUALITY CONTROL. 

LAZ038-040-048-061>063-065>067-069-282200-
SOUTHEAST LOUISIANA
  
CITY           SKY/WX    TMP DP  RH WIND       PRES   REMARKS
N.O. INTL ARPT MOSUNNY   81  64  56 S13       29.94F                  
N.O. LAKEFRONT MOSUNNY   81  67  62 S16       29.95F                  
N.O. DOWNTOWN* NOT AVBL                                               
RESERVE*       NOT AVBL                                               
SLIDELL        MOSUNNY   83  65  54 S12       29.94F                  
BATON ROUGE    MOSUNNY   85  63  47 S13       29.91F                  
BOOTHVILLE     MOSUNNY   79  69  71 S12       29.97F                  
BELLE CHASSE   MOSUNNY   82  69  64 S15       29.96F                  
BOGALUSA*      NOT AVBL                                               
GALLIANO*      PTCLDY    80  64  57 SE10      29.96F                  
NEW ROADS*     NOT AVBL                                               
GONZALES*      NOT AVBL                                               
HAMMOND*       SUNNY     82  63  51 S10       29.93F                  
HOUMA*         MOSUNNY   79  70  73 S13       29.95F                  
PORT FOURCHON* PTCLDY    77  70  78 S12G17    29.96F                  

$$

MSZ070-080>082-282200-
SOUTHERN MISSISSIPPI
  
CITY           SKY/WX    TMP DP  RH WIND       PRES   REMARKS
MCCOMB         MOSUNNY   83  61  47 S9        29.93F                  
GULFPORT       SUNNY     79  68  69 S15       29.96F                  
BILOXI         MOSUNNY   78  70  75 S13       29.97F                  
PASCAGOULA     MOSUNNY   79  64  60 S10       29.97F                  
STENNIS ARPT*  MOSUNNY   81  63  54 SE12      29.96F                  

$$

COASTAL OBSERVATIONS
LAKE AND NEARSHORE STATIONS
  
STATION/POSITION TIME  TEMP    WIND        PRES    WAVE
                       AIR SEA DIR/SP/G            HT/PER
                 (UTC) (F)     (DEG/KT/KT) (MB)    (FT/S)
PASCAGOULA       2048   77     180/ 10/ 13 1014.9
WAVELAND YACHT   2048   75 76  160/ 14/ 15 1014.5
GRAND ISLE       2048   76 76  160/  6/ 12 1014.6
SOUTHWEST PASS   2048          130/  8/ 10   N/A
NEW CANAL        2048   81 73  190/  9/ 12 1014.0
SHELL BEACH      2048   77 76  140/ 13/ 15 1014.7

OFFSHORE STATIONS
  
STATION/POSITION TIME  TEMP    WIND        PRES    WAVE
                       AIR SEA DIR/SP/G            HT/PER
                 (UTC) (F)     (DEG/KT/KT) (MB)    (FT/S)

$$

  


651 
ASUS44 KLIX 282113
RWRLA 
LOUISIANA WEATHER ROUNDUP
NATIONAL WEATHER SERVICE NEW ORLEANS LA
400 PM CDT TUE MAR 28 2017

NOTE: "FAIR" INDICATES FEW OR NO CLOUDS BELOW 12,000 FEET WITH NO
      SIGNIFICANT WEATHER AND/OR OBSTRUCTIONS TO VISIBILITY.
      SKY/WX - SKY CONDITION AND SIGNIFICANT WEATHER.
      TMP - AIR TEMPERATURE.    DP   - DEWPOINT TEMPERATURE.
      RH  - RELATIVE HUMIDITY.  PRES - PRESSURE.
      HX  - HEAT INDEX.         WCI  - WIND CHILL INDEX.

*  THESE STATIONS ARE NOT NWS OR FAA STATIONS AND ARE NOT UNDER
   NWS QUALITY CONTROL.

LAZ040-048-061>063-065-066-069-282200-
SOUTHEAST LOUISIANA
  
CITY           SKY/WX    TMP DP  RH WIND       PRES   REMARKS
N.O. INTL ARPT MOSUNNY   81  64  56 S13       29.94F                  
N.O. LAKEFRONT MOSUNNY   81  67  62 S16       29.95F                  
N.O. DOWNTOWN* NOT AVBL                                               
RESERVE*       NOT AVBL                                               
SLIDELL        MOSUNNY   83  65  54 S12       29.94F                  
BATON ROUGE    MOSUNNY   85  63  47 S13       29.91F                  
BOOTHVILLE     MOSUNNY   79  69  71 S12       29.97F                  
BELLE CHASSE   MOSUNNY   82  69  64 S15       29.96F                  
BOGALUSA*      NOT AVBL                                               
GALLIANO*      PTCLDY    80  64  57 SE10      29.96F                  
NEW ROADS*     NOT AVBL                                               
GONZALES*      NOT AVBL                                               
HAMMOND*       SUNNY     82  63  51 S10       29.93F                  
HOUMA*         MOSUNNY   79  70  73 S13       29.95F                  
PORT FOURCHON* PTCLDY    77  70  78 S12G17    29.96F                  

$$

LAZ041-044-053-054-282200-
SOUTHWEST LOUISIANA
  
CITY           SKY/WX    TMP DP  RH WIND       PRES   REMARKS
LAKE CHARLES   SUNNY     82  65  56 SE20      29.89F                  
LAFAYETTE      SUNNY     83  65  54 S9G22     29.92F                  
PATTERSON      PTSUNNY   80  68  66 S14       29.94F                  
SALT POINT       N/A     78  69  73 VRB5      29.93F                  
NEW IBERIA     MOSUNNY   81  66  60 S15       29.93F                  
CHENAULT AIRPK NOT AVBL                                               

$$

LAZ027-028-282200-
CENTRAL LOUISIANA
  
CITY           SKY/WX    TMP DP  RH WIND       PRES   REMARKS
FORT POLK      MOSUNNY   84  57  40 SE16G25   29.86F                  
ALEXANDRIA INT LGT RAIN  83  64  52 S14G21    29.86F                  
ALEXANDRIA     MOSUNNY   86  62  44 S10       29.88F                  

$$

LAZ001-002-282200-
NORTHWEST LOUISIANA
  
CITY           SKY/WX    TMP DP  RH WIND       PRES   REMARKS
SHREVEPORT     MOSUNNY   85  67  54 SE12G17   29.82F                  
BARKSDALE AFB  MOSUNNY   83  66  56 S13G20    29.83F                  
DTN SHREVEPORT MOSUNNY   83  66  56 E10       29.83F                  

$$

LAZ014-016-282200-
NORTHEAST LOUISIANA
  
CITY           SKY/WX    TMP DP  RH WIND       PRES   REMARKS
MONROE         MOSUNNY   83  65  54 VRB7      29.89F                  
TALLULAH       PTSUNNY   82  61  48 VRB3      29.90F                  

$$

  

Return to Home page


Western Regional Climate Center, wrcc@dri.edu